Location: Helds Island Access
(38.5526°N, 91.5997°W)
Time: 06:51:38
(UTC-05:00)

Daily predictions for brighter satellites

Satellite Brightness Start Highest point End
(mag) Time Altitude Azimuth Time Altitude Azimuth Time Altitude Azimuth
Cosmos 2346 Rocket 4.5 19:07:59 10° N 19:14:05 87° E 19:20:07 10° S
CZ-2C R/B 3.6 19:11:05 10° S 19:15:51 48° W 19:20:31 10° NNW
USA 215 3.9 19:10:36 10° ENE 19:16:30 35° SE 19:22:21 10° S
COSMO-SKYMED 1 2.7 19:17:21 10° N 19:21:43 82° WNW 19:26:03 10° SSW
FREGAT/IRIS 3.6 19:20:13 10° SE 19:22:55 28° ENE 19:25:38 10° NNE
BREEZE-M DEB (TANK) 4.2 19:19:54 10° WNW 19:23:18 62° SW 19:34:03 10° SE
Meteor 1-28 Rocket 3.5 19:20:02 10° NNE 19:23:35 42° E 19:27:07 10° S
Abrixas 2.6 19:20:45 10° SW 19:23:41 56° SE 19:26:39 10° ENE
Helios 1B rocket 3.4 19:21:32 10° NE 19:24:58 25° E 19:28:22 10° SSE
Cosmos 2278 Rocket 4.1 19:20:43 10° NW 19:25:48 35° WSW 19:30:52 10° SSW
Cosmos 1072 Rocket 4.4 19:21:43 10° S 19:27:47 74° E 19:33:52 10° N
IDEFIX/ARIANE 42P 4.1 19:25:05 10° SSW 19:29:58 41° W 19:34:56 10° NNW
Cosmos 1805 3.6 19:27:23 10° SSE 19:31:04 41° E 19:34:48 10° NNE
Aureole 2 Rocket 4.3 19:28:36 10° SW 19:32:47 44° WNW 19:36:53 10° N
GPS 2-04 Rocket1 3.4 19:30:55 10° SW 19:34:03 32° SSE 19:36:40 14° ESE
Cosmos 1346 4.4 19:31:44 10° NNE 19:34:03 20° ENE 19:36:07 11° ESE
Cosmos 2297 4.2 19:28:56 10° NNW 19:34:32 64° WSW 19:40:04 10° S
Gbstr 26 Del rocket 4.0 19:31:44 10° S 19:35:27 30° SE 19:39:48 10° ENE
Cosmos 1953 2.4 19:34:41 10° S 19:38:33 53° E 19:42:27 10° NNE
Cosmos 1766 Rocket 3.5 19:35:21 10° N 19:39:41 61° E 19:43:57 10° SSE
Cosmos 1076 Rocket 3.4 19:35:23 10° N 19:39:44 76° E 19:44:04 10° S
NOAA 12 4.0 19:36:07 10° SSE 19:41:19 71° ENE 19:46:36 10° N
Cosmos 2369 Rocket 3.5 19:37:59 10° N 19:42:20 22° NE 19:45:20 15° E
Cosmos 1943 4.1 19:37:59 10° SSE 19:42:32 26° ESE 19:47:05 10° NE
Meteor 1-29 3.8 19:39:36 10° NE 19:42:42 29° E 19:45:46 10° SSE
ATLAS CENTAUR R/B 4.1 19:39:50 10° WNW 19:42:45 19° WSW 19:45:31 10° SSW
SAR-Lupe-1 4.0 19:39:54 10° SSE 19:43:27 88° E 19:47:02 10° NNW
Cosmos-2242 3.0 19:42:31 10° S 19:46:49 60° E 19:51:09 10° NNE
Cosmos 1603 3.7 19:42:50 10° SSW 19:48:32 71° ESE 19:54:16 10° NNE
NOSS 3-2 (A) 4.5 19:43:24 10° SW 19:49:16 49° NW 19:55:40 10° NNE
Cosmos 1733 4.3 19:50:36 10° SE 19:53:42 23° E 19:56:50 10° NE
OAO 3 Rocket 3.5 19:49:32 10° W 19:54:10 54° S 19:57:20 20° ESE
Cosmos 1470 3.5 19:52:11 10° SSE 19:55:37 30° E 19:59:02 10° NNE
Cosmos 1452 Rocket 3.5 19:51:25 10° NNW 19:56:43 86° WSW 20:01:57 10° SSE
Spot 1 4.1 19:57:26 10° SSE 20:02:10 84° ENE 20:06:39 10° NNW
Cosmos 2034 Rocket 4.1 19:56:34 10° S 20:02:50 86° W 20:09:13 10° N
In-Cosmos 22 4.4 19:57:51 10° NNW 20:03:39 80° W 20:09:22 10° S
Cosmos 1674 3.2 20:01:08 10° N 20:04:46 38° ENE 20:06:20 26° SE
ASTEX 1 3.7 20:00:36 10° NNE 20:05:13 41° E 20:09:49 10° SSE
SJ-6B 3.9 20:03:38 10° S 20:07:29 49° W 20:11:27 10° NNW
ASTRO E2 4.5 20:07:24 10° WSW 20:10:36 23° SSW 20:12:23 17° SSE
Cosmos 1842 Rocket 3.6 20:06:56 10° S 20:11:07 51° E 20:15:22 10° NNE
Cosmos 1408 Rocket 4.4 20:07:11 10° NNW 20:11:24 52° W 20:15:35 10° S
Cosmos 1500 Rocket 3.8 20:07:58 10° N 20:12:16 47° E 20:14:49 22° SE
Cosmos 1420 Rocket 3.9 20:11:31 10° NNW 20:16:51 80° ENE 20:21:43 12° SSE
CENTAUR R/B 2.4 20:11:37 10° SSW 20:17:27 60° ESE 20:23:59 10° NE
ATLAS 5 CENTAUR R/B 3.5 20:15:05 10° WSW 20:19:26 33° NW 20:24:07 10° NNE
FengYun 1-2 T 4.1 20:15:50 10° SSE 20:21:20 84° ENE 20:26:51 10° NNW
ALOS 2.2 20:20:32 19° SSE 20:23:46 66° ENE 20:28:25 10° N
Helios 1A 3.3 20:21:57 10° S 20:26:08 69° WSW 20:30:20 10° NNW
ISS -2.7 20:23:23 10° WSW 20:26:34 53° NW 20:27:24 39° NNE
Spot 2 Rocket 4.0 20:24:55 10° S 20:29:53 60° WSW 20:34:52 10° NNW
Cosmos 1544 4.2 20:27:08 10° SSW 20:30:44 45° W 20:34:21 10° N
Cosmos 1048 Rocket 4.3 20:29:00 10° SSW 20:34:17 69° WNW 20:39:32 10° NNE
Resurs 1-3 4.0 20:32:10 10° S 20:36:29 61° W 20:40:51 10° NNW
SL-8 R/B 4.3 20:35:38 10° WSW 20:40:18 52° NNW 20:42:21 30° NE
Envisat 4.5 20:42:35 22° NE 20:42:35 22° NE 20:45:04 10° NNE
Cosmos 1743 Rocket 4.3 20:37:08 10° NNW 20:41:27 52° W 20:45:43 10° S
Resurs 01 Rocket 2.9 20:38:10 10° S 20:42:21 40° W 20:46:33 10° NNW
Cosmos 1174 4.1 20:42:18 10° SSW 20:47:11 75° WNW 20:48:25 44° NNE
CZ-2D R/B 3.4 20:51:00 73° W 20:51:00 73° W 20:54:52 10° NNW
Cosmos 158 Rocket 3.9 20:47:40 10° SSW 20:52:32 77° WNW 20:57:26 10° NNE
FENGYUN 3A 4.0 20:51:25 17° S 20:55:34 65° WSW 21:00:56 10° NNW
USA 215 3.6 20:53:14 10° NE 20:59:40 62° NW 21:06:04 10° WSW
H-2A R/B 3.6 21:03:23 50° W 21:03:23 50° W 21:06:57 10° NNW
GP-B 3.5 21:04:06 10° N 21:08:05 61° NW 21:08:05 61° NW
Cosmos 2279 Rocket 3.9 21:09:41 66° ENE 21:09:41 66° ENE 21:15:20 10° NNE
ERS-1 Rocket 4.1 21:15:36 34° N 21:15:36 34° N 21:18:31 10° N
Gbstr 26 Del rocket 4.1 21:17:44 10° WSW 21:22:13 48° NNW 21:22:26 48° NNW
Cosmos 1943 Rocket 2.9 21:17:14 10° NNW 21:21:09 43° N 21:21:09 43° N
Cosmos 1655 Rocket 3.9 21:19:10 10° N 21:25:24 83° W 21:25:31 83° WSW
Cosmos 1943 4.4 21:21:02 10° SW 21:26:18 41° WNW 21:31:37 10° N
Cosmos 2369 Rocket 2.7 21:21:10 10° NNW 21:26:40 53° WSW 21:27:10 51° SW
Cosmos 2026 Rocket 4.1 21:24:53 10° NNW 21:30:57 67° W 21:31:32 63° SW
CENTAUR R/B 4.3 22:03:20 10° W 22:08:36 28° NW 22:14:24 10° NNE
